date,time,SUV Intensity [MED/Hr],UV Index,Daily total [MED],Since Last [MED]
11/06/2022,00:09:07,-0.000,0.0,0.0,0.0
11/06/2022,00:11:07,0.000,0.0,0.0,0.0
11/06/2022,00:13:08,0.000,0.0,0.0,0.0
11/06/2022,00:15:07,0.001,0.0,0.0,0.0
11/06/2022,00:17:07,0.001,0.0,0.0,0.0
11/06/2022,00:19:07,0.001,0.0,0.0,0.0
11/06/2022,00:21:07,-0.000,0.0,0.0,0.0
11/06/2022,00:23:07,-0.002,0.0,0.0,0.0
11/06/2022,00:25:15,0.001,0.0,0.0,0.0
11/06/2022,00:27:06,0.000,0.0,0.0,0.0
11/06/2022,00:29:06,-0.001,0.0,0.0,0.0
11/06/2022,00:31:07,-0.001,0.0,0.0,0.0
11/06/2022,00:33:07,-0.001,0.0,0.0,0.0
11/06/2022,00:35:07,0.000,0.0,0.0,0.0
11/06/2022,00:37:15,0.000,0.0,0.0,0.0
11/06/2022,00:39:07,-0.001,0.0,0.0,0.0
11/06/2022,00:41:06,0.000,0.0,0.0,0.0
11/06/2022,00:43:07,0.000,0.0,0.0,0.0
11/06/2022,00:45:07,0.000,0.0,0.0,0.0
11/06/2022,00:47:15,0.000,0.0,0.0,0.0
11/06/2022,00:49:07,0.000,0.0,0.0,0.0
11/06/2022,00:51:07,0.000,0.0,0.0,0.0
11/06/2022,00:53:07,0.000,0.0,0.0,0.0
11/06/2022,00:55:07,0.000,0.0,0.0,0.0
11/06/2022,00:57:06,-0.001,0.0,0.0,0.0
11/06/2022,00:59:07,0.001,0.0,0.0,0.0
11/06/2022,01:01:07,0.000,0.0,0.0,0.0
11/06/2022,01:03:06,0.000,0.0,0.0,0.0
11/06/2022,01:05:15,0.000,0.0,0.0,0.0
11/06/2022,01:07:07,0.000,0.0,0.0,0.0
11/06/2022,01:09:07,0.000,0.0,0.0,0.0
11/06/2022,01:11:07,0.000,0.0,0.0,0.0
11/06/2022,01:13:07,0.001,0.0,0.0,0.0
11/06/2022,01:15:15,0.000,0.0,0.0,0.0
11/06/2022,01:16:53,0.000,0.0,0.0,0.0
11/06/2022,01:19:17,0.001,0.0,0.0,0.0
11/06/2022,01:21:06,0.000,0.0,0.0,0.0
11/06/2022,01:23:17,0.000,0.0,0.0,0.0
11/06/2022,01:26:07,-0.000,0.0,0.0,0.0
11/06/2022,01:28:07,-0.000,0.0,0.0,0.0
11/06/2022,01:30:07,0.000,0.0,0.0,0.0
11/06/2022,01:32:07,0.001,0.0,0.0,0.0
11/06/2022,01:34:07,-0.001,0.0,0.0,0.0
11/06/2022,01:36:07,0.001,0.0,0.0,0.0
11/06/2022,01:38:07,0.001,0.0,0.0,0.0
11/06/2022,01:40:07,0.000,0.0,0.0,0.0
11/06/2022,01:42:07,0.001,0.0,0.0,0.0
11/06/2022,01:44:07,-0.001,0.0,0.0,0.0
11/06/2022,01:46:07,-0.000,0.0,0.0,0.0
11/06/2022,01:48:07,0.001,0.0,0.0,0.0
11/06/2022,01:50:06,0.000,0.0,0.0,0.0
11/06/2022,01:52:07,0.001,0.0,0.0,0.0
11/06/2022,01:54:07,0.000,0.0,0.0,0.0
11/06/2022,01:56:16,0.000,0.0,0.0,0.0
11/06/2022,01:58:07,0.001,0.0,0.0,0.0
11/06/2022,02:00:07,0.000,0.0,0.0,0.0
11/06/2022,02:02:24,0.001,0.0,0.0,0.0
11/06/2022,02:04:09,0.000,0.0,0.0,0.0
11/06/2022,02:06:07,0.000,0.0,0.0,0.0
11/06/2022,02:08:07,0.000,0.0,0.0,0.0
11/06/2022,02:10:07,0.000,0.0,0.0,0.0
11/06/2022,02:12:07,0.001,0.0,0.0,0.0
11/06/2022,02:14:15,0.000,0.0,0.0,0.0
11/06/2022,02:16:07,0.000,0.0,0.0,0.0
11/06/2022,02:18:06,0.001,0.0,0.0,0.0
11/06/2022,02:20:07,0.000,0.0,0.0,0.0
11/06/2022,02:22:07,0.001,0.0,0.0,0.0
11/06/2022,02:24:15,0.000,0.0,0.0,0.0
11/06/2022,02:26:07,0.001,0.0,0.0,0.0
11/06/2022,02:28:07,0.002,0.0,0.0,0.0
11/06/2022,02:30:07,0.001,0.0,0.0,0.0
11/06/2022,02:32:07,0.001,0.0,0.0,0.0
11/06/2022,02:34:07,0.001,0.0,0.0,0.0
11/06/2022,02:36:07,0.001,0.0,0.0,0.0
11/06/2022,02:38:07,0.001,0.0,0.0,0.0
11/06/2022,02:40:07,-0.000,0.0,0.0,0.0
11/06/2022,02:42:07,-0.000,0.0,0.0,0.0
11/06/2022,02:44:07,0.000,0.0,0.0,0.0
11/06/2022,02:46:07,0.000,0.0,0.0,0.0
11/06/2022,02:48:08,-0.001,0.0,0.0,0.0
11/06/2022,02:50:07,-0.001,0.0,0.0,0.0
11/06/2022,02:52:07,-0.000,0.0,0.0,0.0
11/06/2022,02:54:07,0.001,0.0,0.0,0.0
11/06/2022,02:55:58,0.001,0.0,0.0,0.0
11/06/2022,02:58:09,0.001,0.0,0.0,0.0
11/06/2022,03:00:08,-0.000,0.0,0.0,0.0
11/06/2022,03:02:15,0.000,0.0,0.0,0.0
11/06/2022,03:04:07,0.001,0.0,0.0,0.0
11/06/2022,03:06:07,0.001,0.0,0.0,0.0
11/06/2022,03:08:07,-0.000,0.0,0.0,0.0
11/06/2022,03:10:07,0.001,0.0,0.0,0.0
11/06/2022,03:12:07,0.001,0.0,0.0,0.0
11/06/2022,03:14:16,0.000,0.0,0.0,0.0
11/06/2022,03:16:07,0.001,0.0,0.0,0.0
11/06/2022,03:18:07,0.000,0.0,0.0,0.0
11/06/2022,03:20:07,0.001,0.0,0.0,0.0
11/06/2022,03:22:07,0.001,0.0,0.0,0.0
11/06/2022,03:24:15,0.001,0.0,0.0,0.0
11/06/2022,03:26:07,-0.000,0.0,0.0,0.0
11/06/2022,03:28:07,0.001,0.0,0.0,0.0
11/06/2022,03:30:07,0.001,0.0,0.0,0.0
11/06/2022,03:32:07,0.001,0.0,0.0,0.0
11/06/2022,03:34:07,0.001,0.0,0.0,0.0
11/06/2022,03:36:07,0.001,0.0,0.0,0.0
11/06/2022,03:38:07,0.002,0.0,0.0,0.0
11/06/2022,03:40:07,0.001,0.0,0.0,0.0
11/06/2022,03:42:07,0.002,0.0,0.0,0.0
11/06/2022,03:44:07,0.002,0.0,0.0,0.0
11/06/2022,03:46:07,0.002,0.0,0.0,0.0
11/06/2022,03:48:07,0.002,0.0,0.0,0.0
11/06/2022,03:50:07,0.002,0.0,0.0,0.0
11/06/2022,03:52:16,0.002,0.0,0.0,0.0
11/06/2022,03:54:07,0.003,0.0,0.0,0.0
11/06/2022,03:56:32,0.003,0.0,0.0,0.0
11/06/2022,03:59:07,0.003,0.0,0.0,0.0
11/06/2022,04:01:07,0.004,0.0,0.0,0.0
11/06/2022,04:03:08,0.004,0.0,0.0,0.0
11/06/2022,04:05:15,0.005,0.0,0.0,0.0
11/06/2022,04:07:07,0.005,0.0,0.0,0.0
11/06/2022,04:09:08,0.005,0.0,0.0,0.0
11/06/2022,04:11:07,0.006,0.0,0.0,0.0
11/06/2022,04:13:07,0.006,0.0,0.0,0.0
11/06/2022,04:15:16,0.007,0.0,0.0,0.0
11/06/2022,04:17:07,0.007,0.0,0.001,0.001
11/06/2022,04:19:07,0.008,0.0,0.001,0.0
11/06/2022,04:21:07,0.009,0.0,0.001,0.0
11/06/2022,04:23:07,0.010,0.0,0.001,0.0
11/06/2022,04:25:07,0.010,0.0,0.002,0.001
11/06/2022,04:27:15,0.010,0.0,0.002,0.0
11/06/2022,04:29:08,0.011,0.0,0.002,0.0
11/06/2022,04:31:07,0.012,0.0,0.003,0.001
11/06/2022,04:33:07,0.013,0.0,0.003,0.0
11/06/2022,04:35:07,0.013,0.0,0.004,0.001
11/06/2022,04:37:16,0.015,0.0,0.004,0.0
11/06/2022,04:39:07,0.015,0.0,0.005,0.001
11/06/2022,04:41:07,0.017,0.0,0.005,0.0
11/06/2022,04:43:07,0.018,0.0,0.006,0.001
11/06/2022,04:45:07,0.019,0.0,0.006,0.0
11/06/2022,04:47:15,0.022,0.0,0.007,0.001
11/06/2022,04:49:07,0.021,0.0,0.008,0.001
11/06/2022,04:51:07,0.024,0.0,0.009,0.001
11/06/2022,04:53:07,0.025,0.0,0.009,0.0
11/06/2022,04:55:07,0.027,0.0,0.01,0.001
11/06/2022,04:57:07,0.028,0.0,0.011,0.001
11/06/2022,04:59:15,0.030,0.0,0.012,0.001
11/06/2022,05:02:09,0.033,0.0,0.014,0.002
11/06/2022,05:04:08,0.033,0.0,0.015,0.001
11/06/2022,05:06:08,0.036,0.0,0.016,0.001
11/06/2022,05:08:07,0.039,0.0,0.017,0.001
11/06/2022,05:10:23,0.042,0.0,0.019,0.002
11/06/2022,05:13:08,0.044,0.0,0.021,0.002
11/06/2022,05:15:07,0.047,0.0,0.022,0.001
11/06/2022,05:17:07,0.049,0.0,0.024,0.002
11/06/2022,05:19:07,0.051,0.0,0.025,0.001
11/06/2022,05:21:08,0.054,0.0,0.027,0.002
11/06/2022,05:23:07,0.057,0.0,0.029,0.002
11/06/2022,05:25:08,0.059,0.0,0.031,0.002
11/06/2022,05:27:07,0.062,0.0,0.033,0.002
11/06/2022,05:29:07,0.066,0.0,0.035,0.002
11/06/2022,05:31:07,0.068,0.0,0.037,0.002
11/06/2022,05:33:08,0.072,0.0,0.04,0.003
11/06/2022,05:35:07,0.077,0.0,0.042,0.002
11/06/2022,05:37:07,0.079,0.0,0.045,0.003
11/06/2022,05:39:08,0.084,0.0,0.047,0.002
11/06/2022,05:41:08,0.087,0.0,0.05,0.003
11/06/2022,05:43:07,0.091,0.0,0.053,0.003
11/06/2022,05:45:07,0.095,0.0,0.056,0.003
11/06/2022,05:47:07,0.099,0.0,0.06,0.004
11/06/2022,05:49:08,0.103,0.0,0.063,0.003
11/06/2022,05:51:16,0.108,0.0,0.067,0.004
11/06/2022,05:53:07,0.114,0.0,0.07,0.003
11/06/2022,05:55:07,0.118,0.0,0.074,0.004
11/06/2022,05:57:07,0.122,0.0,0.078,0.004
11/06/2022,05:59:07,0.128,0.0,0.082,0.004
11/06/2022,06:01:07,0.133,0.0,0.086,0.004
11/06/2022,06:03:07,0.138,0.0,0.091,0.005
11/06/2022,06:05:08,0.144,0.0,0.096,0.005
11/06/2022,06:07:07,0.150,0.0,0.101,0.005
11/06/2022,06:09:07,0.157,0.0,0.106,0.005
11/06/2022,06:11:07,0.162,0.0,0.111,0.005
11/06/2022,06:13:15,0.168,0.0,0.117,0.006
11/06/2022,06:15:07,0.175,0.0,0.122,0.005
11/06/2022,06:17:08,0.181,0.0,0.128,0.006
11/06/2022,06:19:08,0.190,0.0,0.134,0.006
11/06/2022,06:21:08,0.196,0.0,0.141,0.007
11/06/2022,06:23:08,0.204,0.0,0.148,0.007
11/06/2022,06:25:08,0.211,0.0,0.155,0.007
11/06/2022,06:27:07,0.220,1.0,0.162,0.007
11/06/2022,06:29:16,0.228,1.0,0.17,0.008
11/06/2022,06:31:08,0.234,1.0,0.177,0.007
11/06/2022,06:33:07,0.244,1.0,0.185,0.008
11/06/2022,06:35:07,0.253,1.0,0.193,0.008
11/06/2022,06:37:07,0.262,1.0,0.202,0.009
11/06/2022,06:39:08,0.271,1.0,0.211,0.009
11/06/2022,06:41:08,0.280,1.0,0.22,0.009
11/06/2022,06:43:08,0.289,1.0,0.229,0.009
11/06/2022,06:45:07,0.299,1.0,0.239,0.01
11/06/2022,06:47:07,0.307,1.0,0.249,0.01
11/06/2022,06:49:08,0.318,1.0,0.26,0.011
11/06/2022,06:51:07,0.329,1.0,0.271,0.011
11/06/2022,06:53:07,0.339,1.0,0.282,0.011
11/06/2022,06:55:07,0.350,1.0,0.293,0.011
11/06/2022,06:57:07,0.361,1.0,0.305,0.012
11/06/2022,07:00:08,0.378,1.0,0.324,0.019
11/06/2022,07:02:08,0.391,1.0,0.336,0.012
11/06/2022,07:04:07,0.401,1.0,0.35,0.014
11/06/2022,07:06:07,0.414,1.0,0.363,0.013
11/06/2022,07:08:07,0.426,1.0,0.377,0.014
11/06/2022,07:10:07,0.437,1.0,0.391,0.014
11/06/2022,07:12:07,0.450,1.0,0.406,0.015
11/06/2022,07:14:08,0.462,1.0,0.422,0.016
11/06/2022,07:16:07,0.477,1.0,0.437,0.015
11/06/2022,07:18:08,0.490,1.0,0.453,0.016
11/06/2022,07:20:07,0.504,1.0,0.47,0.017
11/06/2022,07:22:07,0.518,1.0,0.487,0.017
11/06/2022,07:24:16,0.532,1.0,0.506,0.019
11/06/2022,07:26:07,0.543,1.0,0.522,0.016
11/06/2022,07:28:08,0.559,1.0,0.541,0.019
11/06/2022,07:30:08,0.573,1.0,0.56,0.019
11/06/2022,07:32:08,0.584,1.0,0.579,0.019
11/06/2022,07:34:16,0.602,1.0,0.6,0.021
11/06/2022,07:36:09,0.619,1.0,0.619,0.019
11/06/2022,07:38:07,0.630,1.0,0.64,0.021
11/06/2022,07:40:08,0.651,1.0,0.661,0.021
11/06/2022,07:42:07,0.663,2.0,0.683,0.022
11/06/2022,07:44:08,0.682,2.0,0.706,0.023
11/06/2022,07:46:15,0.699,2.0,0.73,0.024
11/06/2022,07:48:07,0.710,2.0,0.752,0.022
11/06/2022,07:50:08,0.727,2.0,0.776,0.024
11/06/2022,07:52:08,0.753,2.0,0.801,0.025
11/06/2022,07:54:07,0.769,2.0,0.826,0.025
11/06/2022,07:56:08,0.547,1.0,0.848,0.022
11/06/2022,07:58:08,0.796,2.0,0.872,0.024
11/06/2022,08:00:07,0.822,2.0,0.899,0.027
11/06/2022,08:02:16,0.842,2.0,0.929,0.03
11/06/2022,08:04:07,0.869,2.0,0.955,0.026
11/06/2022,08:06:07,0.877,2.0,0.985,0.03
11/06/2022,08:08:07,0.888,2.0,1.014,0.029
11/06/2022,08:10:07,0.906,2.0,1.044,0.03
11/06/2022,08:12:08,0.930,2.0,1.075,0.031
11/06/2022,08:14:08,0.950,2.0,1.106,0.031
11/06/2022,08:16:07,0.969,2.0,1.138,0.032
11/06/2022,08:18:07,1.003,2.0,1.17,0.032
11/06/2022,08:20:07,1.008,2.0,1.204,0.034
11/06/2022,08:22:07,1.026,2.0,1.237,0.033
11/06/2022,08:24:16,1.026,2.0,1.266,0.029
11/06/2022,08:26:08,0.636,1.0,1.294,0.028
11/06/2022,08:28:08,0.651,1.0,1.314,0.02
11/06/2022,08:30:07,0.829,2.0,1.341,0.027
11/06/2022,08:32:08,1.109,3.0,1.377,0.036
11/06/2022,08:34:15,0.716,2.0,1.411,0.034
11/06/2022,08:36:07,0.785,2.0,1.437,0.026
11/06/2022,08:38:07,1.078,2.0,1.47,0.033
11/06/2022,08:40:07,0.650,1.0,1.494,0.024
11/06/2022,08:42:08,1.155,3.0,1.52,0.026
11/06/2022,08:44:08,1.205,3.0,1.557,0.037
11/06/2022,08:46:08,1.240,3.0,1.597,0.04
11/06/2022,08:48:08,0.746,2.0,1.635,0.038
11/06/2022,08:50:07,0.648,1.0,1.661,0.026
11/06/2022,08:52:07,1.242,3.0,1.686,0.025
11/06/2022,08:54:08,1.328,3.0,1.728,0.042
11/06/2022,08:56:08,1.350,3.0,1.773,0.045
11/06/2022,08:58:07,1.355,3.0,1.81,0.037
11/06/2022,09:00:07,0.915,2.0,1.854,0.044
11/06/2022,09:02:08,0.967,2.0,1.894,0.04
11/06/2022,09:04:08,0.824,2.0,1.928,0.034
11/06/2022,09:06:08,0.772,2.0,1.955,0.027
11/06/2022,09:08:08,0.739,2.0,1.98,0.025
11/06/2022,09:10:07,0.736,2.0,2.004,0.024
11/06/2022,09:31:46,0.967,2.0,2.353,0.349
11/06/2022,09:34:08,1.050,2.0,2.392,0.039
11/06/2022,09:36:08,1.058,2.0,2.428,0.036
11/06/2022,09:38:08,1.435,3.0,2.472,0.044
11/06/2022,09:40:08,1.980,5.0,2.525,0.053
11/06/2022,09:42:07,1.394,3.0,2.577,0.052
11/06/2022,09:44:09,1.177,3.0,2.625,0.048
11/06/2022,09:46:16,1.845,4.0,2.687,0.062
11/06/2022,09:48:07,1.123,3.0,2.735,0.048
11/06/2022,09:50:08,1.859,4.0,2.783,0.048
11/06/2022,09:52:08,1.931,4.0,2.843,0.06
11/06/2022,09:54:08,1.940,4.0,2.907,0.064
11/06/2022,09:56:08,1.951,4.0,2.972,0.065
11/06/2022,09:58:16,1.949,4.0,3.032,0.06
11/06/2022,10:00:08,1.023,2.0,3.085,0.053
11/06/2022,10:02:08,1.169,3.0,3.125,0.04
11/06/2022,10:04:08,2.101,5.0,3.189,0.064
11/06/2022,10:06:07,2.114,5.0,3.259,0.07
11/06/2022,10:08:16,1.782,4.0,3.332,0.073
11/06/2022,10:10:07,2.061,5.0,3.381,0.049
11/06/2022,10:12:08,0.936,2.0,3.431,0.05
11/06/2022,10:14:08,0.892,2.0,3.462,0.031
11/06/2022,10:16:08,0.905,2.0,3.494,0.032
11/06/2022,10:18:07,0.970,2.0,3.525,0.031
11/06/2022,10:20:07,1.017,2.0,3.558,0.033
11/06/2022,10:22:07,1.065,2.0,3.594,0.036
11/06/2022,10:24:08,1.995,5.0,3.635,0.041
11/06/2022,10:26:16,1.160,3.0,3.676,0.041
11/06/2022,10:28:08,2.212,5.0,3.721,0.045
11/06/2022,10:30:08,1.296,3.0,3.769,0.048
11/06/2022,10:32:07,2.219,5.0,3.839,0.07
11/06/2022,10:34:08,2.319,5.0,3.911,0.072
11/06/2022,10:36:08,2.349,5.0,3.989,0.078
11/06/2022,10:38:08,1.769,4.0,4.06,0.071
11/06/2022,10:40:08,2.174,5.0,4.134,0.074
11/06/2022,10:42:08,1.688,4.0,4.198,0.064
11/06/2022,10:44:07,1.400,3.0,4.258,0.06
11/06/2022,10:46:08,1.327,3.0,4.307,0.049
11/06/2022,10:48:08,1.357,3.0,4.353,0.046
11/06/2022,10:50:08,1.371,3.0,4.398,0.045
11/06/2022,10:52:08,1.460,3.0,4.45,0.052
11/06/2022,10:54:16,1.390,3.0,4.507,0.057
11/06/2022,10:56:07,2.401,6.0,4.57,0.063
11/06/2022,10:58:08,2.387,5.0,4.65,0.08
11/06/2022,11:00:08,2.410,6.0,4.73,0.08
11/06/2022,11:02:08,2.403,6.0,4.811,0.081
11/06/2022,11:04:08,2.399,6.0,4.891,0.08
11/06/2022,11:06:08,2.421,6.0,4.972,0.081
11/06/2022,11:08:08,2.421,6.0,5.052,0.08
11/06/2022,11:10:08,2.431,6.0,5.134,0.082
11/06/2022,11:12:16,2.426,6.0,5.22,0.086
11/06/2022,11:14:08,2.458,6.0,5.296,0.076
11/06/2022,11:16:08,2.471,6.0,5.378,0.082
11/06/2022,11:18:08,2.574,6.0,5.462,0.084
11/06/2022,11:20:07,1.395,3.0,5.525,0.063
11/06/2022,11:22:16,2.152,5.0,5.593,0.068
11/06/2022,11:24:07,2.210,5.0,5.638,0.045
11/06/2022,11:26:08,1.325,3.0,5.684,0.046
11/06/2022,11:28:16,2.623,6.0,5.758,0.074
11/06/2022,11:30:08,2.512,6.0,5.834,0.076
11/06/2022,11:32:08,2.668,6.0,5.914,0.08
11/06/2022,11:34:08,2.676,6.0,6.003,0.089
11/06/2022,11:36:08,2.666,6.0,6.091,0.088
11/06/2022,11:38:08,2.650,6.0,6.18,0.089
11/06/2022,11:40:08,2.610,6.0,6.268,0.088
11/06/2022,11:42:08,1.499,3.0,6.317,0.049
11/06/2022,11:44:07,2.615,6.0,6.402,0.085
11/06/2022,11:46:29,2.600,6.0,6.505,0.103
11/06/2022,11:48:07,1.214,3.0,6.563,0.058
11/06/2022,11:50:08,1.180,3.0,6.602,0.039
11/06/2022,11:52:07,2.606,6.0,6.664,0.062
11/06/2022,11:54:08,2.670,6.0,6.752,0.088
11/06/2022,11:56:08,2.691,6.0,6.833,0.081
11/06/2022,11:58:08,2.658,6.0,6.913,0.08
11/06/2022,12:00:08,2.671,6.0,7.002,0.089
11/06/2022,12:02:08,2.707,6.0,7.092,0.09
11/06/2022,12:04:17,2.783,6.0,7.189,0.097
11/06/2022,12:06:08,2.777,6.0,7.275,0.086
11/06/2022,12:08:08,2.795,6.0,7.354,0.079
11/06/2022,12:10:08,2.705,6.0,7.445,0.091
11/06/2022,12:12:08,2.721,6.0,7.535,0.09
11/06/2022,12:14:08,2.666,6.0,7.625,0.09
11/06/2022,12:16:08,2.683,6.0,7.714,0.089
11/06/2022,12:18:08,2.725,6.0,7.804,0.09
11/06/2022,12:20:08,2.782,6.0,7.896,0.092
11/06/2022,12:22:08,2.039,5.0,7.973,0.077
11/06/2022,12:24:08,1.441,3.0,8.049,0.076
11/06/2022,12:26:08,1.630,4.0,8.098,0.049
11/06/2022,12:28:16,2.551,6.0,8.156,0.058
11/06/2022,12:30:08,2.104,5.0,8.233,0.077
11/06/2022,12:32:08,1.213,3.0,8.279,0.046
11/06/2022,12:34:16,0.967,2.0,8.338,0.059
11/06/2022,12:36:08,1.034,2.0,8.369,0.031
11/06/2022,12:38:09,1.147,3.0,8.406,0.037
11/06/2022,12:40:08,1.105,3.0,8.443,0.037
11/06/2022,12:42:08,1.034,2.0,8.479,0.036
11/06/2022,12:44:08,1.135,3.0,8.514,0.035
11/06/2022,12:46:08,1.386,3.0,8.558,0.044
11/06/2022,12:48:08,1.523,4.0,8.61,0.052
11/06/2022,12:50:09,1.494,3.0,8.665,0.055
11/06/2022,12:52:08,1.414,3.0,8.713,0.048
11/06/2022,12:54:08,1.433,3.0,8.778,0.065
11/06/2022,12:56:08,1.411,3.0,8.83,0.052
11/06/2022,12:58:09,1.401,3.0,8.882,0.052
11/06/2022,13:00:08,1.662,4.0,8.931,0.049
11/06/2022,13:02:08,1.390,3.0,8.996,0.065
11/06/2022,13:04:08,1.352,3.0,9.044,0.048
11/06/2022,13:06:08,2.376,5.0,9.099,0.055
11/06/2022,13:08:08,1.400,3.0,9.156,0.057
11/06/2022,13:10:08,2.383,5.0,9.232,0.076
11/06/2022,13:12:16,2.477,6.0,9.299,0.067
11/06/2022,13:14:08,2.503,6.0,9.36,0.061
11/06/2022,13:16:08,2.461,6.0,9.443,0.083
11/06/2022,13:18:08,1.886,4.0,9.525,0.082
11/06/2022,13:20:08,2.313,5.0,9.601,0.076
11/06/2022,13:22:08,2.385,5.0,9.653,0.052
11/06/2022,13:24:08,1.505,3.0,9.725,0.072
11/06/2022,13:26:08,2.378,5.0,9.785,0.06
11/06/2022,13:28:08,2.369,5.0,9.864,0.079
11/06/2022,13:30:08,2.329,5.0,9.942,0.078
11/06/2022,13:32:08,1.581,4.0,10.005,0.063
11/06/2022,13:34:08,1.187,3.0,10.053,0.048
11/06/2022,13:36:08,1.250,3.0,10.106,0.053
11/06/2022,13:38:08,2.290,5.0,10.173,0.067
11/06/2022,13:40:09,2.321,5.0,10.251,0.078
11/06/2022,13:42:08,1.832,4.0,10.325,0.074
11/06/2022,13:44:09,2.290,5.0,10.387,0.062
11/06/2022,13:46:08,2.336,5.0,10.463,0.076
11/06/2022,13:48:17,2.246,5.0,10.54,0.077
11/06/2022,13:50:08,1.391,3.0,10.605,0.065
11/06/2022,13:52:08,2.193,5.0,10.657,0.052
11/06/2022,13:54:08,2.157,5.0,10.73,0.073
11/06/2022,13:56:08,2.152,5.0,10.802,0.072
11/06/2022,13:58:08,2.135,5.0,10.873,0.071
11/06/2022,14:00:09,2.127,5.0,10.944,0.071
11/06/2022,14:02:08,2.131,5.0,11.015,0.071
11/06/2022,14:04:08,2.053,5.0,11.085,0.07
11/06/2022,14:06:08,1.147,3.0,11.124,0.039
11/06/2022,14:08:08,2.130,5.0,11.184,0.06
11/06/2022,14:10:08,2.028,5.0,11.249,0.065
11/06/2022,14:12:08,1.068,2.0,11.298,0.049
11/06/2022,14:14:08,2.045,5.0,11.357,0.059
11/06/2022,14:16:08,1.774,4.0,11.424,0.067
11/06/2022,14:18:08,1.164,3.0,11.472,0.048
11/06/2022,14:20:08,1.084,2.0,11.509,0.037
11/06/2022,14:22:08,1.213,3.0,11.561,0.052
11/06/2022,14:24:08,1.182,3.0,11.62,0.059
11/06/2022,14:26:08,1.927,4.0,11.667,0.047
11/06/2022,14:28:08,1.901,4.0,11.731,0.064
11/06/2022,14:30:08,1.799,4.0,11.793,0.062
11/06/2022,14:32:09,1.856,4.0,11.855,0.062
11/06/2022,14:34:09,1.867,4.0,11.916,0.061
11/06/2022,14:36:08,1.833,4.0,11.978,0.062
11/06/2022,14:38:08,1.835,4.0,12.028,0.05
11/06/2022,14:40:17,1.774,4.0,12.092,0.064
11/06/2022,14:42:08,1.740,4.0,12.147,0.055
11/06/2022,14:44:09,1.736,4.0,12.19,0.043
11/06/2022,14:46:08,1.810,4.0,12.247,0.057
11/06/2022,14:48:08,1.750,4.0,12.304,0.057
11/06/2022,14:50:08,1.702,4.0,12.36,0.056
11/06/2022,14:52:09,1.469,3.0,12.404,0.044
11/06/2022,14:54:08,1.659,4.0,12.459,0.055
11/06/2022,14:56:08,1.074,2.0,12.507,0.048
11/06/2022,14:58:09,1.600,4.0,12.559,0.052
11/06/2022,15:00:08,1.575,4.0,12.612,0.053
11/06/2022,15:02:08,1.557,4.0,12.664,0.052
11/06/2022,15:04:08,1.536,4.0,12.715,0.051
11/06/2022,15:06:08,1.518,3.0,12.766,0.051
11/06/2022,15:08:08,1.494,3.0,12.816,0.05
11/06/2022,15:10:08,1.470,3.0,12.866,0.05
11/06/2022,15:12:09,1.462,3.0,12.914,0.048
11/06/2022,15:14:08,1.441,3.0,12.963,0.049
11/06/2022,15:16:08,1.417,3.0,13.01,0.047
11/06/2022,15:18:09,1.405,3.0,13.057,0.047
11/06/2022,15:20:17,1.384,3.0,13.107,0.05
11/06/2022,15:22:08,1.373,3.0,13.15,0.043
11/06/2022,15:24:08,1.348,3.0,13.195,0.045
11/06/2022,15:26:17,1.319,3.0,13.243,0.048
11/06/2022,15:28:08,0.808,2.0,13.276,0.033
11/06/2022,15:30:08,0.984,2.0,13.316,0.04
11/06/2022,15:32:09,1.271,3.0,13.352,0.036
11/06/2022,15:34:08,1.245,3.0,13.394,0.042
11/06/2022,15:36:09,1.229,3.0,13.435,0.041
11/06/2022,15:38:09,1.215,3.0,13.475,0.04
11/06/2022,15:40:09,1.190,3.0,13.514,0.039
11/06/2022,15:42:08,1.174,3.0,13.553,0.039
11/06/2022,15:44:08,1.149,3.0,13.592,0.039
11/06/2022,15:46:09,1.140,3.0,13.63,0.038
11/06/2022,15:48:17,1.112,3.0,13.671,0.041
11/06/2022,15:50:08,1.096,3.0,13.705,0.034
11/06/2022,15:52:09,1.077,2.0,13.741,0.036
11/06/2022,15:54:17,1.054,2.0,13.779,0.038
11/06/2022,15:56:08,1.047,2.0,13.812,0.033
11/06/2022,15:58:08,1.026,2.0,13.846,0.034
11/06/2022,16:00:08,0.997,2.0,13.877,0.031
11/06/2022,16:02:08,1.003,2.0,13.911,0.034
11/06/2022,16:04:09,0.985,2.0,13.944,0.033
11/06/2022,16:06:09,0.961,2.0,13.976,0.032
11/06/2022,16:08:09,0.936,2.0,14.008,0.032
11/06/2022,16:10:09,0.921,2.0,14.039,0.031
11/06/2022,16:12:08,0.903,2.0,14.069,0.03
11/06/2022,16:14:16,0.871,2.0,14.1,0.031
11/06/2022,16:16:08,0.562,1.0,14.12,0.02
11/06/2022,16:18:08,0.836,2.0,14.142,0.022
11/06/2022,16:20:08,0.840,2.0,14.17,0.028
11/06/2022,16:22:16,0.814,2.0,14.199,0.029
11/06/2022,16:24:08,0.804,2.0,14.224,0.025
11/06/2022,16:25:59,0.788,2.0,14.248,0.024
11/06/2022,16:28:09,0.771,2.0,14.277,0.029
11/06/2022,16:30:17,0.746,2.0,14.303,0.026
11/06/2022,16:32:08,0.729,2.0,14.326,0.023
11/06/2022,16:34:10,0.721,2.0,14.351,0.025
11/06/2022,16:36:08,0.701,2.0,14.374,0.023
11/06/2022,16:38:08,0.678,2.0,14.397,0.023
11/06/2022,16:40:09,0.670,2.0,14.419,0.022
11/06/2022,16:42:09,0.652,1.0,14.441,0.022
11/06/2022,16:44:08,0.639,1.0,14.463,0.022
11/06/2022,16:46:08,0.626,1.0,14.484,0.021
11/06/2022,16:48:10,0.608,1.0,14.505,0.021
11/06/2022,16:50:08,0.591,1.0,14.524,0.019
11/06/2022,16:52:09,0.579,1.0,14.544,0.02
11/06/2022,16:54:08,0.561,1.0,14.563,0.019
11/06/2022,16:56:08,0.506,1.0,14.581,0.018
11/06/2022,16:58:08,0.534,1.0,14.599,0.018
11/06/2022,17:00:08,0.518,1.0,14.616,0.017
11/06/2022,17:02:09,0.498,1.0,14.633,0.017
11/06/2022,17:04:16,0.492,1.0,14.651,0.018
11/06/2022,17:06:08,0.480,1.0,14.666,0.015
11/06/2022,17:08:09,0.466,1.0,14.682,0.016
11/06/2022,17:10:08,0.455,1.0,14.697,0.015
11/06/2022,17:12:09,0.444,1.0,14.713,0.016
11/06/2022,17:14:08,0.431,1.0,14.727,0.014
11/06/2022,17:16:16,0.420,1.0,14.742,0.015
11/06/2022,17:18:09,0.406,1.0,14.755,0.013
11/06/2022,17:20:09,0.395,1.0,14.768,0.013
11/06/2022,17:22:09,0.383,1.0,14.781,0.013
11/06/2022,17:24:09,0.374,1.0,14.794,0.013
11/06/2022,17:26:09,0.363,1.0,14.806,0.012
11/06/2022,17:28:09,0.353,1.0,14.818,0.012
11/06/2022,17:30:09,0.339,1.0,14.83,0.012
11/06/2022,17:32:08,0.331,1.0,14.841,0.011
11/06/2022,17:34:08,0.321,1.0,14.852,0.011
11/06/2022,17:36:08,0.309,1.0,14.862,0.01
11/06/2022,17:38:08,0.300,1.0,14.872,0.01
11/06/2022,17:40:08,0.281,1.0,14.882,0.01
11/06/2022,17:42:09,0.278,1.0,14.891,0.009
11/06/2022,17:44:17,0.271,1.0,14.901,0.01
11/06/2022,17:46:08,0.264,1.0,14.909,0.008
11/06/2022,17:48:08,0.255,1.0,14.918,0.009
11/06/2022,17:50:17,0.245,1.0,14.927,0.009
11/06/2022,17:52:08,0.237,1.0,14.934,0.007
11/06/2022,17:54:08,0.228,1.0,14.942,0.008
11/06/2022,17:56:09,0.220,1.0,14.95,0.008
11/06/2022,17:58:08,0.213,0.0,14.957,0.007
11/06/2022,18:00:09,0.206,0.0,14.964,0.007
11/06/2022,18:02:08,0.198,0.0,14.97,0.006
11/06/2022,18:04:08,0.191,0.0,14.977,0.007
11/06/2022,18:06:08,0.184,0.0,14.983,0.006
11/06/2022,18:08:09,0.177,0.0,14.989,0.006
11/06/2022,18:10:17,0.170,0.0,14.995,0.006
11/06/2022,18:12:08,0.163,0.0,15.001,0.006
11/06/2022,18:14:08,0.157,0.0,15.006,0.005
11/06/2022,18:16:17,0.151,0.0,15.011,0.005
11/06/2022,18:18:08,0.146,0.0,15.016,0.005
11/06/2022,18:20:09,0.139,0.0,15.021,0.005
11/06/2022,18:22:08,0.134,0.0,15.025,0.004
11/06/2022,18:24:09,0.129,0.0,15.03,0.005
11/06/2022,18:26:09,0.123,0.0,15.034,0.004
11/06/2022,18:28:09,0.118,0.0,15.038,0.004
11/06/2022,18:30:10,0.113,0.0,15.042,0.004
11/06/2022,18:32:10,0.108,0.0,15.046,0.004
11/06/2022,18:34:08,0.104,0.0,15.049,0.003
11/06/2022,18:36:17,0.100,0.0,15.053,0.004
11/06/2022,18:38:09,0.096,0.0,15.056,0.003
11/06/2022,18:40:08,0.092,0.0,15.059,0.003
11/06/2022,18:42:09,0.088,0.0,15.062,0.003
11/06/2022,18:44:08,0.084,0.0,15.065,0.003
11/06/2022,18:46:08,0.079,0.0,15.067,0.002
11/06/2022,18:48:09,0.075,0.0,15.07,0.003
11/06/2022,18:50:09,0.072,0.0,15.072,0.002
11/06/2022,18:52:09,0.069,0.0,15.075,0.003
11/06/2022,18:54:17,0.065,0.0,15.077,0.002
11/06/2022,18:56:08,0.063,0.0,15.079,0.002
11/06/2022,18:58:10,0.059,0.0,15.081,0.002
11/06/2022,19:00:09,0.056,0.0,15.083,0.002
11/06/2022,19:02:08,0.052,0.0,15.085,0.002
11/06/2022,19:04:09,0.050,0.0,15.087,0.002
11/06/2022,19:06:08,0.048,0.0,15.088,0.001
11/06/2022,19:08:08,0.046,0.0,15.09,0.002
11/06/2022,19:10:08,0.043,0.0,15.091,0.001
11/06/2022,19:12:16,0.041,0.0,15.093,0.002
11/06/2022,19:14:09,0.038,0.0,15.094,0.001
11/06/2022,19:16:09,0.036,0.0,15.095,0.001
11/06/2022,19:18:08,0.034,0.0,15.096,0.001
11/06/2022,19:20:08,0.032,0.0,15.097,0.001
11/06/2022,19:22:09,0.030,0.0,15.098,0.001
11/06/2022,19:24:08,0.028,0.0,15.099,0.001
11/06/2022,19:26:09,0.027,0.0,15.1,0.001
11/06/2022,19:28:09,0.025,0.0,15.101,0.001
11/06/2022,19:30:09,0.023,0.0,15.102,0.001
11/06/2022,19:32:09,0.022,0.0,15.103,0.001
11/06/2022,19:34:09,0.021,0.0,15.103,0.0
11/06/2022,19:36:08,0.019,0.0,15.104,0.001
11/06/2022,19:38:17,0.018,0.0,15.105,0.001
11/06/2022,19:40:09,0.016,0.0,15.105,0.0
11/06/2022,19:42:08,0.015,0.0,15.106,0.001
11/06/2022,19:44:08,0.015,0.0,15.106,0.0
11/06/2022,19:46:17,0.013,0.0,15.107,0.001
11/06/2022,19:48:09,0.011,0.0,15.107,0.0
11/06/2022,19:50:09,0.011,0.0,15.108,0.001